Time,TemperatureF,DewpointF,PressureIn,WindDirection,WindDirectionDegrees,WindSpeedMPH,WindSpeedGustMPH,Humidity,HourlyPrecipIn,Conditions,Clouds,dailyrainin,SoftwareType,DateUTC
2013-06-13 00:02:00,85.0,70.0,29.71,SW,215,3.0,11.0,62,0.00,,,0.00,,2013-06-13 05:02:00,
2013-06-13 00:12:00,85.0,70.0,29.71,SW,215,3.0,11.0,62,0.00,,,0.00,,2013-06-13 05:12:00,
2013-06-13 00:24:00,85.0,71.0,29.71,WSW,238,3.0,14.0,63,0.00,,,0.00,,2013-06-13 05:24:00,
2013-06-13 00:33:00,84.0,70.0,29.71,WSW,248,3.0,11.0,64,0.00,,,0.00,,2013-06-13 05:33:00,
2013-06-13 00:43:00,84.0,70.0,29.71,WSW,248,3.0,11.0,64,0.00,,,0.00,,2013-06-13 05:43:00,
2013-06-13 00:53:00,84.0,70.0,29.71,WSW,238,3.0,12.0,64,0.00,,,0.00,,2013-06-13 05:53:00,
2013-06-13 01:02:00,84.0,71.0,29.71,WSW,254,3.0,11.0,65,0.00,,,0.00,,2013-06-13 06:02:00,
2013-06-13 01:11:00,84.0,71.0,29.71,WSW,254,3.0,11.0,65,0.00,,,0.00,,2013-06-13 06:11:00,
2013-06-13 01:22:00,84.0,72.0,29.72,West,261,5.0,12.0,67,0.00,,,0.00,,2013-06-13 06:22:00,
2013-06-13 01:33:00,83.0,71.0,29.72,West,267,7.0,13.0,68,0.00,,,0.00,,2013-06-13 06:33:00,
2013-06-13 01:44:00,83.0,71.0,29.72,West,267,7.0,13.0,68,0.00,,,0.00,,2013-06-13 06:44:00,
2013-06-13 01:52:00,83.0,71.0,29.72,West,267,7.0,13.0,68,0.00,,,0.00,,2013-06-13 06:52:00,
2013-06-13 02:01:00,82.0,71.0,29.72,NW,304,4.0,13.0,70,0.00,,,0.00,,2013-06-13 07:01:00,
2013-06-13 02:11:00,82.0,71.0,29.72,NW,304,4.0,13.0,70,0.00,,,0.00,,2013-06-13 07:11:00,
2013-06-13 02:22:00,82.0,72.0,29.73,NW,324,6.0,14.0,71,0.00,,,0.00,,2013-06-13 07:22:00,
2013-06-13 02:33:00,80.0,68.0,29.74,NNW,344,7.0,14.0,67,0.00,,,0.00,,2013-06-13 07:33:00,
2013-06-13 02:42:00,80.0,68.0,29.74,NNW,344,7.0,14.0,67,0.00,,,0.00,,2013-06-13 07:42:00,
2013-06-13 02:52:00,80.0,66.0,29.74,West,278,3.0,10.0,63,0.00,,,0.00,,2013-06-13 07:52:00,
2013-06-13 03:01:00,79.0,65.0,29.74,WNW,294,4.0,11.0,62,0.00,,,0.00,,2013-06-13 08:01:00,
2013-06-13 03:11:00,79.0,65.0,29.74,WNW,294,4.0,11.0,62,0.00,,,0.00,,2013-06-13 08:11:00,
2013-06-13 03:22:00,78.0,64.0,29.74,NNW,327,3.0,15.0,63,0.00,,,0.00,,2013-06-13 08:22:00,
2013-06-13 03:32:00,78.0,64.0,29.74,NNW,327,3.0,15.0,63,0.00,,,0.00,,2013-06-13 08:32:00,
2013-06-13 03:43:00,78.0,64.0,29.74,NNW,327,3.0,15.0,63,0.00,,,0.00,,2013-06-13 08:43:00,
2013-06-13 03:52:00,77.0,65.0,29.74,WNW,301,2.0,10.0,67,0.00,,,0.00,,2013-06-13 08:52:00,
2013-06-13 04:02:00,76.0,65.0,29.75,NW,326,5.0,14.0,68,0.00,,,0.00,,2013-06-13 09:02:00,
2013-06-13 04:12:00,76.0,65.0,29.75,NW,326,5.0,14.0,68,0.00,,,0.00,,2013-06-13 09:12:00,
2013-06-13 04:22:00,76.0,65.0,29.75,NW,326,5.0,14.0,68,0.00,,,0.00,,2013-06-13 09:22:00,
2013-06-13 04:32:00,75.0,63.0,29.77,NNW,333,8.0,17.0,66,0.00,,,0.00,,2013-06-13 09:32:00,
2013-06-13 04:42:00,75.0,63.0,29.77,NNW,333,8.0,17.0,66,0.00,,,0.00,,2013-06-13 09:42:00,
2013-06-13 04:52:00,74.0,62.0,29.77,NNW,331,5.0,17.0,67,0.00,,,0.00,,2013-06-13 09:52:00,
2013-06-13 05:01:00,73.0,62.0,29.77,NW,323,5.0,12.0,69,0.00,,,0.00,,2013-06-13 10:01:00,
2013-06-13 05:11:00,73.0,62.0,29.77,NW,323,5.0,12.0,69,0.00,,,0.00,,2013-06-13 10:11:00,
2013-06-13 05:22:00,72.0,62.0,29.78,West,266,5.0,20.0,71,0.00,,,0.00,,2013-06-13 10:22:00,
2013-06-13 05:33:00,71.0,61.0,29.78,WNW,282,6.0,16.0,70,0.00,,,0.00,,2013-06-13 10:33:00,
2013-06-13 05:43:00,71.0,61.0,29.78,WNW,282,6.0,16.0,70,0.00,,,0.00,,2013-06-13 10:43:00,
2013-06-13 05:53:00,71.0,62.0,29.80,NNW,333,5.0,12.0,72,0.00,,,0.00,,2013-06-13 10:53:00,
2013-06-13 06:02:00,70.0,61.0,29.81,West,273,5.0,17.0,72,0.00,,,0.00,,2013-06-13 11:02:00,
2013-06-13 06:11:00,70.0,61.0,29.81,West,273,5.0,17.0,72,0.00,,,0.00,,2013-06-13 11:11:00,
2013-06-13 06:23:00,70.0,61.0,29.82,NW,304,5.0,15.0,74,0.00,,,0.00,,2013-06-13 11:23:00,
2013-06-13 06:32:00,70.0,62.0,29.83,NNW,341,3.0,9.0,76,0.00,,,0.00,,2013-06-13 11:32:00,
2013-06-13 06:42:00,70.0,62.0,29.83,NNW,341,3.0,9.0,76,0.00,,,0.00,,2013-06-13 11:42:00,
2013-06-13 06:52:00,70.0,62.0,29.84,NNW,335,3.0,11.0,76,0.00,,,0.00,,2013-06-13 11:52:00,
2013-06-13 07:01:00,69.0,62.0,29.84,WNW,286,3.0,10.0,78,0.00,,,0.00,,2013-06-13 12:01:00,
2013-06-13 07:11:00,69.0,62.0,29.84,WNW,286,3.0,10.0,78,0.00,,,0.00,,2013-06-13 12:11:00,
2013-06-13 07:22:00,69.0,62.0,29.84,NW,307,2.0,7.0,78,0.00,,,0.00,,2013-06-13 12:22:00,
2013-06-13 07:35:00,69.0,62.0,29.85,West,275,3.0,9.0,79,0.00,,,0.00,,2013-06-13 12:35:00,
2013-06-13 07:42:00,69.0,62.0,29.85,West,275,3.0,9.0,79,0.00,,,0.00,,2013-06-13 12:42:00,
2013-06-13 07:52:00,69.0,62.0,29.85,NW,315,2.0,8.0,79,0.00,,,0.00,,2013-06-13 12:52:00,
2013-06-13 08:01:00,69.0,63.0,29.86,WNW,288,5.0,9.0,80,0.00,,,0.00,,2013-06-13 13:01:00,
2013-06-13 08:11:00,69.0,63.0,29.86,WNW,288,5.0,9.0,80,0.00,,,0.00,,2013-06-13 13:11:00,
2013-06-13 08:22:00,69.0,63.0,29.87,NW,304,4.0,12.0,81,0.00,,,0.00,,2013-06-13 13:22:00,
2013-06-13 08:32:00,68.0,63.0,29.88,WNW,294,2.0,10.0,83,0.00,,,0.00,,2013-06-13 13:32:00,
2013-06-13 08:43:00,68.0,63.0,29.88,WNW,294,2.0,10.0,83,0.00,,,0.00,,2013-06-13 13:43:00,
2013-06-13 08:53:00,68.0,63.0,29.88,WNW,294,2.0,10.0,83,0.00,,,0.00,,2013-06-13 13:53:00,
2013-06-13 09:02:00,68.0,63.0,29.88,WNW,294,2.0,10.0,83,0.00,,,0.00,,2013-06-13 14:02:00,
2013-06-13 09:11:00,68.0,63.0,29.88,WNW,294,2.0,10.0,83,0.00,,,0.00,,2013-06-13 14:11:00,
2013-06-13 09:53:00,69.0,64.0,29.90,WNW,286,3.0,6.0,84,0.00,,,0.00,,2013-06-13 14:53:00,
2013-06-13 10:02:00,70.0,66.0,29.91,NW,324,2.0,8.0,86,0.00,,,0.00,,2013-06-13 15:02:00,
2013-06-13 10:12:00,70.0,66.0,29.91,NW,324,2.0,8.0,86,0.00,,,0.00,,2013-06-13 15:12:00,
2013-06-13 10:22:00,70.0,65.0,29.91,NW,304,1.0,5.0,85,0.00,,,0.00,,2013-06-13 15:22:00,
2013-06-13 10:33:00,71.0,66.0,29.91,NW,309,2.0,9.0,83,0.00,,,0.00,,2013-06-13 15:33:00,
2013-06-13 10:43:00,71.0,66.0,29.91,NW,309,2.0,9.0,83,0.00,,,0.00,,2013-06-13 15:43:00,
2013-06-13 10:53:00,70.0,66.0,29.92,NW,311,3.0,8.0,86,0.00,,,0.00,,2013-06-13 15:53:00,
2013-06-13 11:02:00,70.0,66.0,29.93,West,265,3.0,7.0,87,0.00,,,0.00,,2013-06-13 16:02:00,
2013-06-13 11:12:00,70.0,66.0,29.93,West,265,3.0,7.0,87,0.00,,,0.00,,2013-06-13 16:12:00,
2013-06-13 11:22:00,70.0,66.0,29.93,WNW,302,2.0,6.0,88,0.00,,,0.00,,2013-06-13 16:22:00,
2013-06-13 11:33:00,73.0,68.0,29.93,NNW,346,1.0,6.0,84,0.00,,,0.00,,2013-06-13 16:33:00,
2013-06-13 11:43:00,73.0,68.0,29.93,NNW,346,1.0,6.0,84,0.00,,,0.00,,2013-06-13 16:43:00,
2013-06-13 11:53:00,74.0,67.0,29.93,NW,323,1.0,7.0,80,0.00,,,0.00,,2013-06-13 16:53:00,
2013-06-13 12:02:00,74.0,67.0,29.93,WNW,300,2.0,8.0,78,0.00,,,0.00,,2013-06-13 17:02:00,
2013-06-13 12:11:00,74.0,67.0,29.93,WNW,300,2.0,8.0,78,0.00,,,0.00,,2013-06-13 17:11:00,
2013-06-13 12:24:00,74.0,67.0,29.93,NNW,336,2.0,7.0,78,0.00,,,0.00,,2013-06-13 17:24:00,
2013-06-13 12:33:00,75.0,67.0,29.93,North,5,1.0,6.0,76,0.00,,,0.00,,2013-06-13 17:33:00,
2013-06-13 12:43:00,75.0,67.0,29.93,North,5,1.0,6.0,76,0.00,,,0.00,,2013-06-13 17:43:00,
2013-06-13 12:53:00,77.0,68.0,29.93,WNW,293,1.0,6.0,74,0.00,,,0.00,,2013-06-13 17:53:00,
2013-06-13 13:02:00,79.0,68.0,29.94,NNW,339,3.0,11.0,69,0.00,,,0.00,,2013-06-13 18:02:00,
2013-06-13 13:11:00,79.0,68.0,29.94,NNW,339,3.0,11.0,69,0.00,,,0.00,,2013-06-13 18:11:00,
2013-06-13 13:22:00,79.0,67.0,29.94,NNW,340,4.0,9.0,66,0.00,,,0.00,,2013-06-13 18:22:00,
2013-06-13 13:33:00,81.0,67.0,29.94,North,349,3.0,11.0,63,0.00,,,0.00,,2013-06-13 18:33:00,
2013-06-13 13:43:00,81.0,67.0,29.94,North,349,3.0,11.0,63,0.00,,,0.00,,2013-06-13 18:43:00,
2013-06-13 13:52:00,82.0,67.0,29.94,NNW,340,3.0,7.0,60,0.00,,,0.00,,2013-06-13 18:52:00,
2013-06-13 14:01:00,82.0,66.0,29.95,NE,45,2.0,11.0,59,0.00,,,0.00,,2013-06-13 19:01:00,
2013-06-13 14:11:00,82.0,66.0,29.95,NE,45,2.0,11.0,59,0.00,,,0.00,,2013-06-13 19:11:00,
2013-06-13 14:22:00,81.0,66.0,29.95,NW,323,4.0,10.0,60,0.00,,,0.00,,2013-06-13 19:22:00,
2013-06-13 14:33:00,83.0,67.0,29.95,NNW,331,4.0,9.0,59,0.00,,,0.00,,2013-06-13 19:33:00,
2013-06-13 14:43:00,83.0,67.0,29.95,NNW,331,4.0,9.0,59,0.00,,,0.00,,2013-06-13 19:43:00,
2013-06-13 14:53:00,83.0,67.0,29.95,NNW,329,1.0,6.0,58,0.00,,,0.00,,2013-06-13 19:53:00,
2013-06-13 15:01:00,83.0,66.0,29.94,NNW,342,4.0,9.0,56,0.00,,,0.00,,2013-06-13 20:01:00,
2013-06-13 15:11:00,83.0,66.0,29.94,NNW,342,4.0,9.0,56,0.00,,,0.00,,2013-06-13 20:11:00,
2013-06-13 15:22:00,85.0,68.0,29.94,NW,309,2.0,6.0,56,0.00,,,0.00,,2013-06-13 20:22:00,
2013-06-13 15:33:00,84.0,67.0,29.93,NW,309,2.0,7.0,56,0.00,,,0.00,,2013-06-13 20:33:00,
2013-06-13 15:44:00,84.0,67.0,29.93,NW,309,2.0,7.0,56,0.00,,,0.00,,2013-06-13 20:44:00,
2013-06-13 15:53:00,85.0,65.0,29.93,NNW,345,1.0,7.0,52,0.00,,,0.00,,2013-06-13 20:53:00,
2013-06-13 16:02:00,86.0,66.0,29.93,NW,313,3.0,7.0,52,0.00,,,0.00,,2013-06-13 21:02:00,
2013-06-13 16:11:00,86.0,66.0,29.93,NW,313,3.0,7.0,52,0.00,,,0.00,,2013-06-13 21:11:00,
2013-06-13 16:22:00,85.0,66.0,29.92,NNW,331,2.0,6.0,53,0.00,,,0.00,,2013-06-13 21:22:00,
2013-06-13 16:34:00,86.0,65.0,29.91,SSW,209,1.0,6.0,49,0.00,,,0.00,,2013-06-13 21:34:00,
2013-06-13 16:43:00,86.0,65.0,29.91,SSW,209,1.0,6.0,49,0.00,,,0.00,,2013-06-13 21:43:00,
2013-06-13 16:52:00,87.0,64.0,29.92,North,355,1.0,9.0,47,0.00,,,0.00,,2013-06-13 21:52:00,
2013-06-13 17:02:00,87.0,63.0,29.92,NNW,338,2.0,6.0,45,0.00,,,0.00,,2013-06-13 22:02:00,
2013-06-13 17:11:00,87.0,63.0,29.92,NNW,338,2.0,6.0,45,0.00,,,0.00,,2013-06-13 22:11:00,
2013-06-13 17:22:00,86.0,62.0,29.92,NNW,337,1.0,6.0,45,0.00,,,0.00,,2013-06-13 22:22:00,
2013-06-13 17:33:00,85.0,62.0,29.92,NNW,344,0.0,5.0,47,0.00,,,0.00,,2013-06-13 22:33:00,
2013-06-13 17:43:00,85.0,62.0,29.92,NNW,344,0.0,5.0,47,0.00,,,0.00,,2013-06-13 22:43:00,
2013-06-13 17:52:00,84.0,62.0,29.92,North,355,1.0,7.0,47,0.00,,,0.00,,2013-06-13 22:52:00,
2013-06-13 18:02:00,83.0,62.0,29.92,NNW,335,1.0,4.0,49,0.00,,,0.00,,2013-06-13 23:02:00,
2013-06-13 18:11:00,83.0,62.0,29.92,NNW,335,1.0,4.0,49,0.00,,,0.00,,2013-06-13 23:11:00,
2013-06-13 18:22:00,83.0,61.0,29.93,North,351,0.0,4.0,47,0.00,,,0.00,,2013-06-13 23:22:00,
2013-06-13 18:32:00,84.0,63.0,29.93,NW,325,0.0,4.0,50,0.00,,,0.00,,2013-06-13 23:32:00,
2013-06-13 18:43:00,84.0,63.0,29.93,NW,325,0.0,4.0,50,0.00,,,0.00,,2013-06-13 23:43:00,
2013-06-13 18:52:00,83.0,63.0,29.93,NW,311,2.0,8.0,51,0.00,,,0.00,,2013-06-13 23:52:00,
2013-06-13 19:01:00,83.0,64.0,29.93,NW,313,1.0,7.0,52,0.00,,,0.00,,2013-06-14 00:01:00,
2013-06-13 19:12:00,83.0,64.0,29.93,NW,313,1.0,7.0,52,0.00,,,0.00,,2013-06-14 00:12:00,
2013-06-13 19:22:00,82.0,62.0,29.94,NW,313,0.0,4.0,51,0.00,,,0.00,,2013-06-14 00:22:00,
2013-06-13 19:34:00,81.0,62.0,29.94,WNW,296,1.0,5.0,53,0.00,,,0.00,,2013-06-14 00:34:00,
2013-06-13 19:43:00,81.0,62.0,29.94,WNW,296,1.0,5.0,53,0.00,,,0.00,,2013-06-14 00:43:00,
2013-06-13 19:53:00,80.0,61.0,29.94,NNW,331,1.0,4.0,53,0.00,,,0.00,,2013-06-14 00:53:00,
2013-06-13 20:01:00,80.0,60.0,29.95,NNW,330,1.0,4.0,51,0.00,,,0.00,,2013-06-14 01:01:00,
2013-06-13 20:11:00,80.0,60.0,29.95,NNW,330,1.0,4.0,51,0.00,,,0.00,,2013-06-14 01:11:00,
2013-06-13 20:22:00,79.0,60.0,29.95,NNW,333,0.0,2.0,52,0.00,,,0.00,,2013-06-14 01:22:00,
2013-06-13 20:32:00,78.0,59.0,29.96,NNW,333,0.0,2.0,52,0.00,,,0.00,,2013-06-14 01:32:00,
2013-06-13 20:43:00,78.0,59.0,29.96,NNW,333,0.0,2.0,52,0.00,,,0.00,,2013-06-14 01:43:00,
2013-06-13 20:52:00,77.0,59.0,29.95,NNW,333,0.0,2.0,53,0.00,,,0.00,,2013-06-14 01:52:00,
2013-06-13 21:02:00,77.0,59.0,29.95,NNW,333,0.0,1.0,53,0.00,,,0.00,,2013-06-14 02:02:00,
2013-06-13 21:11:00,77.0,59.0,29.95,NNW,333,0.0,1.0,53,0.00,,,0.00,,2013-06-14 02:11:00,
2013-06-13 21:22:00,76.0,59.0,29.95,NNW,333,0.0,0.0,56,0.00,,,0.00,,2013-06-14 02:22:00,
2013-06-13 21:32:00,75.0,60.0,29.95,NNW,333,0.0,0.0,59,0.00,,,0.00,,2013-06-14 02:32:00,
2013-06-13 21:43:00,75.0,60.0,29.95,NNW,333,0.0,0.0,59,0.00,,,0.00,,2013-06-14 02:43:00,
2013-06-13 21:53:00,74.0,59.0,29.94,NNW,333,0.0,0.0,60,0.00,,,0.00,,2013-06-14 02:53:00,
2013-06-13 22:02:00,72.0,61.0,29.94,NNW,333,0.0,0.0,68,0.00,,,0.00,,2013-06-14 03:02:00,
2013-06-13 22:12:00,72.0,61.0,29.94,NNW,333,0.0,0.0,68,0.00,,,0.00,,2013-06-14 03:12:00,
2013-06-13 22:22:00,71.0,60.0,29.94,NNW,333,0.0,1.0,68,0.00,,,0.00,,2013-06-14 03:22:00,
2013-06-13 22:34:00,70.0,59.0,29.93,NNW,333,0.0,0.0,69,0.00,,,0.00,,2013-06-14 03:34:00,
2013-06-13 22:43:00,70.0,59.0,29.93,NNW,333,0.0,0.0,69,0.00,,,0.00,,2013-06-14 03:43:00,
2013-06-13 22:53:00,69.0,59.0,29.93,NNW,333,0.0,0.0,71,0.00,,,0.00,,2013-06-14 03:53:00,
2013-06-13 23:01:00,68.0,60.0,29.93,NNW,333,0.0,0.0,75,0.00,,,0.00,,2013-06-14 04:01:00,
2013-06-13 23:12:00,68.0,60.0,29.93,NNW,333,0.0,0.0,75,0.00,,,0.00,,2013-06-14 04:12:00,
2013-06-13 23:22:00,68.0,61.0,29.92,NNW,333,0.0,0.0,77,0.00,,,0.00,,2013-06-14 04:22:00,
2013-06-13 23:33:00,67.0,60.0,29.92,NNW,333,0.0,0.0,78,0.00,,,0.00,,2013-06-14 04:33:00,
2013-06-13 23:43:00,67.0,60.0,29.92,NNW,333,0.0,0.0,78,0.00,,,0.00,,2013-06-14 04:43:00,
2013-06-13 23:53:00,67.0,61.0,29.92,NNW,333,0.0,0.0,80,0.00,,,0.00,,2013-06-14 04:53:00,